Location: Darmstadt
(49.8706°N, 8.6494°E)
Time: 06:45:29
(UTC+01:00)

CZ-2C R/B - Pass Details

Date: 31 October 2020
Orbit: 703 x 909 km, 98.1° (Epoch: 03 December)

Event Time Altitude Azimuth Distance (km) Brightness Sun altitude
Rises 17:47:08 0° 130° (SE) 3,507 6.1 -7.5°
Reaches altitude 10° 17:49:51 10° 119° (ESE) 2,553 5.3 -7.9°
Maximum altitude 17:54:39 29° 62° (ENE) 1,543 4.1 -8.7°
Drops below altitude 10° 17:59:18 10° 4° (N) 2,471 5.5 -9.4°
Sets 18:01:53 0° 354° (N) 3,377 6.3 -9.8°
